Wind_Speed
4 4 5 5 5 5 6 7 7 7 7 8 8 9 9 10 9 9 8 8 8 8 8 10 9 10 10 11 11 11 12 11 12 11 11 11 10 10 10 9 9 9 9
4 5 5 5 5 5 6 6 7 7 7 8 9 9 10 10 11 11 10 9 9 9 9 9 10 11 11 11 11 12 12 12 12 11 11 11 11 11 11 12 11 11 11
6 6 6 6 6 6 6 6 6 7 8 9 9 9 9 10 11 11 11 10 10 10 10 10 10 11 12 12 12 12 12 12 12 12 13 13 13 13 13 13 13 13 12
8 8 7 7 7 7 6 7 7 7 9 9 9 9 10 10 11 11 11 11 11 11 11 11 11 12 13 13 14 13 13 14 13 14 14 14 14 14 14 14 14 14 13
9 9 8 8 8 8 7 8 8 8 9 9 9 9 9 10 11 11 11 12 12 13 13 13 13 12 13 14 15 15 15 15 15 15 15 15 16 15 14 14 15 15 14
10 10 9 9 9 9 10 9 9 9 9 9 9 9 10 10 11 12 13 13 13 13 14 14 14 15 14 15 15 16 16 16 15 15 16 17 17 16 16 16 16 16 16
11 9 9 10 10 10 10 10 10 11 10 10 10 10 10 11 12 13 14 14 14 14 14 15 15 16 16 16 17 16 17 17 17 16 17 17 17 17 17 17 18 18 18
10 10 10 11 11 11 11 11 11 11 11 12 12 12 11 12 13 14 14 14 15 15 15 16 16 17 17 17 18 18 18 18 18 19 18 18 18 18 19 19 19 20 19
11 11 11 11 11 11 11 12 12 12 13 13 13 13 13 13 14 14 15 16 16 16 16 17 17 17 18 18 18 18 19 20 20 20 19 20 20 20 20 20 20 20 20
12 12 12 12 12 12 12 12 13 13 13 13 14 14 14 15 14 14 15 16 16 17 17 18 19 19 19 19 19 19 20 19 20 21 21 22 21 21 21 22 21 21 20
12 13 13 13 13 13 13 13 14 14 15 15 15 15 15 15 16 16 16 16 17 17 17 18 19 19 20 19 20 21 21 21 21 21 21 22 22 22 22 22 22 22 21
13 14 14 14 15 14 14 14 15 15 16 16 16 16 16 17 17 17 17 17 18 18 18 19 20 20 20 21 21 21 22 22 23 22 22 23 23 23 23 23 22 21 22
14 15 16 16 16 16 15 16 16 16 17 18 18 17 17 18 18 17 18 18 19 19 20 20 21 21 21 21 21 21 22 23 23 24 24 24 24 24 23 22 22 23 23
16 16 17 17 17 17 17 17 17 17 17 17 18 18 18 18 18 17 18 19 19 20 21 21 21 22 22 22 22 22 23 23 24 24 24 24 24 24 23 23 23 24 24
17 17 18 18 18 18 18 18 18 18 18 18 18 18 18 18 17 18 18 19 20 21 21 22 22 22 23 23 23 23 23 24 24 24 24 23 23 23 23 24 24 24 24
19 19 19 19 20 20 20 20 20 20 19 19 19 19 18 18 19 19 19 20 21 22 22 23 23 24 24 24 24 24 24 23 23 23 22 23 24 25 25 25 25 25 25
21 21 21 21 21 21 21 21 21 21 20 20 20 20 20 20 20 20 21 22 22 22 23 23 24 24 24 25 24 24 24 24 23 24 24 24 25 25 26 26 27 27 27
22 22 22 22 22 22 22 22 22 22 21 22 21 21 21 21 21 22 22 22 23 23 24 23 24 25 25 25 24 25 25 26 25 25 25 26 25 26 26 27 28 28 28
23 23 23 23 23 23 23 23 23 22 22 22 22 22 22 22 22 23 23 23 23 24 24 25 25 26 26 26 25 26 26 26 26 26 26 26 26 26 27 28 29 29 30
24 24 24 25 24 24 24 24 24 23 24 23 23 24 24 24 24 24 24 25 25 25 24 25 25 26 26 27 27 26 26 27 27 27 27 27 28 28 28 29 29 29 30
25 25 25 26 26 26 26 26 25 25 25 25 25 25 25 25 25 25 25 25 26 26 25 25 26 26 27 28 27 27 27 28 28 28 28 29 29 29 29 29 30 31 31
25 26 26 26 27 27 27 27 27 27 27 27 26 25 25 25 25 25 25 25 25 25 26 26 27 27 28 28 28 28 29 29 29 29 30 30 31 31 31 31 31 31 32
27 27 27 27 27 28 28 28 28 28 28 27 27 26 26 27 26 26 26 26 25 25 25 26 26 27 27 28 28 29 29 29 29 30 30 31 32 32 32 32 32 31 32
27 27 27 27 28 28 29 29 29 28 27 27 27 27 27 27 27 27 26 26 26 26 26 26 27 27 27 27 27 27 28 28 29 29 29 30 30 31 31 32 32 33 33
26 27 27 28 28 29 29 29 28 28 27 28 28 27 27 27 28 27 27 27 27 27 27 27 27 28 27 27 27 28 28 28 29 29 29 29 29 30 31 31 31 32 33
27 27 28 28 29 28 28 28 28 28 28 28 28 27 27 27 27 27 27 27 27 27 27 27 27 27 28 28 28 28 28 28 29 29 29 29 29 30 30 30 31 31 32
Wind_Direction
272 268 271 273 275 260 256 256 258 264 259 254 258 256 257 258 249 248 249 248 254 252 248 245 243 240 236 234 230 230 233 232 231 234 236 240 245 245 247 252 257 262 267
275 272 278 278 272 266 265 263 265 267 262 260 259 256 259 255 251 250 246 249 251 256 249 243 243 243 240 237 235 231 231 233 237 239 242 243 247 250 252 254 258 261 266
271 273 276 277 271 268 268 266 274 271 265 263 261 257 257 250 253 250 249 250 254 256 255 251 248 240 241 239 238 240 238 238 240 243 246 247 250 254 257 258 258 261 264
267 275 274 271 271 268 265 266 273 276 271 267 262 259 258 255 254 252 253 253 254 256 257 255 255 248 244 242 241 238 239 241 243 246 249 251 251 254 257 261 262 261 264
265 272 270 268 268 266 265 265 273 278 276 270 265 263 262 259 253 253 254 255 256 257 256 251 249 251 251 245 244 240 241 243 245 247 250 253 254 254 257 261 264 265 265
261 267 267 265 268 268 269 269 271 270 270 267 263 263 262 259 256 256 257 256 257 258 256 253 250 251 252 249 248 243 244 246 246 248 251 254 257 258 259 263 265 267 267
259 260 264 266 269 269 272 273 274 268 263 262 262 263 263 261 258 259 261 256 256 257 256 253 251 252 250 250 248 248 248 248 248 251 255 256 259 259 261 265 267 269 268
260 263 266 267 267 269 271 272 273 270 265 263 263 263 263 264 262 262 261 258 258 259 256 254 254 255 253 252 252 252 252 251 251 253 256 258 259 261 262 263 267 269 269
264 262 265 264 265 269 270 270 272 270 267 264 263 263 262 267 267 264 262 259 259 260 257 255 254 256 257 255 256 257 255 254 253 254 256 258 260 262 263 263 266 268 268
270 267 267 266 265 267 268 271 271 272 268 265 265 266 267 268 269 267 266 262 261 260 260 257 256 256 258 257 257 258 259 257 256 256 258 259 260 262 263 265 266 268 268
273 272 271 270 269 267 268 272 272 271 268 266 266 267 270 271 271 270 266 263 261 260 260 257 257 257 257 259 258 259 260 259 260 258 258 260 261 263 265 265 265 267 267
271 272 273 272 270 269 270 271 272 269 268 268 268 269 270 270 272 271 268 266 265 263 263 259 258 258 260 259 260 260 261 262 261 259 258 260 262 264 264 266 266 266 267
269 271 270 272 271 270 271 272 270 268 267 267 269 271 272 272 272 271 270 271 268 266 265 264 263 261 262 263 263 262 263 265 264 262 261 261 263 264 266 265 266 267 268
270 272 270 270 270 269 268 271 270 268 268 269 269 270 271 271 271 272 272 272 271 270 268 266 265 263 264 264 265 265 264 265 265 264 264 264 265 267 265 263 265 266 267
273 274 273 272 273 271 269 268 269 268 268 269 269 270 270 271 273 274 273 273 272 270 268 267 266 265 264 264 264 265 265 266 267 265 265 266 267 267 266 265 265 267 269
274 273 274 273 273 270 267 267 268 270 271 269 269 270 271 272 272 273 274 275 273 271 270 269 269 268 267 266 266 265 266 266 266 266 266 267 267 266 267 267 266 268 271
275 277 276 275 274 272 270 270 270 270 271 270 269 268 271 272 274 274 274 274 274 272 271 270 269 269 269 268 266 266 267 267 267 267 267 269 269 267 267 267 268 270 271
275 276 277 276 275 272 271 271 270 271 272 271 270 270 271 272 274 274 275 274 274 273 272 270 269 268 267 267 267 267 268 269 269 269 269 270 271 270 268 269 270 271 272
274 274 275 276 276 275 274 273 273 272 273 274 272 272 272 273 274 274 273 273 275 275 273 270 268 268 267 267 268 268 268 269 270 271 271 270 271 272 272 271 272 272 273
275 274 274 276 277 275 274 274 273 271 272 272 272 272 272 273 274 274 274 274 274 275 273 271 269 269 270 270 269 268 268 269 271 272 271 272 273 274 275 273 273 274 274
274 274 275 274 275 275 274 273 272 272 272 272 271 273 272 273 273 274 275 275 274 274 272 270 269 270 271 271 270 269 270 271 272 273 274 274 275 276 277 275 274 275 275
274 275 275 274 274 275 274 271 270 272 273 272 271 271 272 273 274 276 276 275 275 274 273 271 270 271 272 273 272 272 272 272 272 273 274 275 276 276 277 277 277 276 276
274 275 274 275 274 274 274 274 272 271 271 270 270 270 271 273 274 276 276 276 276 275 273 271 271 273 274 274 274 273 272 273 273 274 274 275 276 277 277 278 278 278 277
272 273 275 276 275 275 275 274 273 271 270 269 269 270 270 271 272 274 274 275 275 275 274 273 272 273 274 275 274 274 272 273 274 274 275 276 276 276 277 278 278 278 279
273 274 275 276 277 277 276 274 273 269 268 267 268 268 268 270 271 272 273 274 274 275 275 274 273 272 273 274 275 276 274 274 275 275 276 277 277 278 279 279 278 279 279
274 276 277 277 277 276 277 274 270 268 268 268 268 267 267 269 270 270 271 273 274 275 276 276 275 274 274 275 276 277 276 276 277 276 276 277 278 279 280 280 279 279 281
Height
5877 5877 5877 5877 5876 5876 5876 5876 5875 5874 5875 5875 5875 5875 5876 5876 5876 5877 5877 5878 5878 5879 5879 5879 5880 5881 5881 5882 5883 5884 5885 5886 5887 5888 5889 5890 5891 5891 5892 5892 5892 5892 5892
5876 5876 5876 5875 5875 5875 5874 5874 5874 5874 5874 5874 5874 5874 5874 5874 5874 5875 5875 5876 5876 5877 5877 5878 5878 5879 5880 5881 5881 5882 5883 5884 5885 5886 5887 5888 5889 5889 5889 5890 5890 5890 5890
5875 5875 5874 5874 5873 5873 5873 5872 5872 5872 5872 5872 5872 5872 5872 5872 5873 5873 5873 5874 5874 5874 5875 5875 5876 5877 5878 5879 5880 5880 5882 5882 5883 5884 5885 5885 5886 5887 5887 5887 5888 5888 5888
5873 5873 5872 5872 5872 5872 5871 5871 5871 5870 5870 5870 5870 5870 5870 5870 5871 5871 5871 5871 5872 5872 5872 5873 5874 5875 5876 5876 5877 5878 5879 5880 5881 5881 5882 5883 5883 5884 5884 5884 5885 5885 5885
5870 5870 5870 5870 5870 5870 5870 5870 5869 5868 5868 5868 5867 5867 5867 5868 5868 5868 5869 5869 5869 5870 5870 5870 5871 5872 5873 5874 5875 5875 5876 5877 5878 5879 5879 5880 5880 5880 5881 5881 5882 5882 5882
5868 5868 5867 5867 5868 5868 5867 5867 5867 5866 5866 5866 5866 5865 5865 5865 5866 5866 5866 5866 5867 5867 5867 5868 5869 5869 5870 5871 5872 5872 5873 5874 5875 5875 5876 5876 5877 5877 5878 5878 5878 5878 5878
5865 5865 5865 5865 5865 5865 5865 5864 5864 5863 5863 5863 5864 5863 5863 5863 5863 5863 5863 5864 5864 5864 5864 5865 5866 5866 5867 5868 5868 5869 5870 5870 5871 5872 5872 5873 5873 5874 5874 5874 5874 5874 5874
5862 5862 5862 5862 5862 5862 5862 5861 5861 5861 5860 5860 5861 5861 5861 5861 5860 5860 5860 5860 5861 5861 5861 5862 5862 5863 5864 5864 5864 5865 5866 5867 5867 5868 5868 5869 5869 5869 5870 5870 5870 5870 5870
5859 5859 5859 5859 5859 5859 5858 5858 5858 5858 5858 5857 5857 5858 5858 5858 5858 5857 5857 5857 5857 5857 5858 5858 5859 5859 5860 5860 5860 5861 5861 5862 5863 5863 5864 5865 5865 5865 5865 5865 5865 5865 5865
5856 5856 5856 5856 5855 5855 5855 5855 5854 5854 5854 5854 5854 5854 5855 5855 5854 5854 5854 5853 5853 5854 5854 5854 5855 5855 5855 5856 5856 5856 5857 5857 5858 5858 5859 5860 5860 5860 5860 5860 5860 5860 5860
5853 5853 5852 5852 5852 5852 5851 5851 5851 5851 5851 5851 5851 5850 5850 5850 5850 5850 5850 5850 5849 5849 5849 5850 5850 5851 5851 5851 5851 5852 5852 5853 5853 5853 5853 5854 5854 5855 5855 5855 5855 5855 5855
5850 5849 5849 5848 5848 5848 5848 5848 5847 5847 5847 5847 5847 5846 5847 5846 5846 5846 5845 5845 5845 5845 5845 5845 5845 5846 5846 5846 5847 5847 5847 5847 5847 5848 5848 5848 5848 5849 5849 5849 5849 5849 5849
5846 5845 5845 5845 5844 5844 5844 5843 5843 5843 5843 5843 5843 5842 5842 5842 5842 5841 5841 5841 5840 5840 5841 5841 5841 5841 5841 5841 5842 5842 5842 5842 5842 5842 5842 5842 5842 5842 5842 5842 5843 5843 5843
5842 5841 5841 5840 5840 5839 5839 5839 5839 5839 5839 5839 5838 5838 5838 5838 5837 5837 5837 5837 5836 5836 5836 5836 5836 5835 5836 5836 5836 5836 5836 5836 5836 5836 5836 5836 5836 5836 5836 5836 5836 5836 5836
5838 5837 5836 5836 5835 5835 5835 5834 5834 5834 5834 5834 5834 5833 5833 5833 5833 5832 5832 5832 5831 5831 5831 5831 5830 5830 5830 5830 5830 5830 5830 5830 5830 5830 5830 5830 5830 5830 5830 5830 5830 5830 5830
5833 5832 5831 5831 5831 5830 5830 5830 5829 5829 5829 5828 5828 5828 5828 5828 5827 5827 5827 5826 5826 5826 5825 5825 5824 5824 5824 5824 5824 5824 5824 5824 5824 5824 5824 5824 5824 5824 5823 5823 5823 5823 5823
5828 5827 5826 5826 5826 5825 5825 5825 5824 5824 5823 5823 5823 5822 5822 5822 5822 5822 5821 5821 5820 5820 5820 5819 5818 5818 5818 5818 5818 5818 5818 5818 5818 5818 5818 5818 5817 5817 5817 5817 5817 5816 5816
5822 5822 5821 5820 5820 5819 5819 5819 5819 5818 5818 5817 5817 5817 5816 5816 5816 5816 5815 5815 5814 5814 5813 5813 5812 5812 5812 5812 5812 5811 5811 5811 5811 5811 5811 5811 5810 5810 5810 5810 5809 5809 5809
5816 5815 5815 5814 5814 5813 5813 5813 5812 5812 5811 5811 5811 5810 5810 5810 5809 5809 5809 5808 5808 5807 5807 5806 5806 5806 5805 5805 5805 5805 5805 5805 5804 5804 5804 5804 5803 5803 5803 5803 5802 5802 5801
5809 5808 5808 5808 5807 5807 5807 5806 5806 5805 5805 5805 5804 5804 5804 5803 5803 5803 5802 5802 5801 5801 5800 5800 5799 5799 5799 5798 5798 5798 5798 5798 5798 5797 5797 5797 5796 5796 5795 5795 5794 5794 5793
5802 5802 5801 5801 5800 5800 5800 5799 5799 5798 5798 5798 5797 5797 5797 5796 5796 5796 5795 5795 5794 5793 5793 5792 5792 5792 5792 5791 5791 5791 5791 5790 5790 5789 5789 5789 5788 5788 5787 5786 5786 5785 5785
5795 5794 5794 5793 5793 5793 5792 5792 5791 5791 5790 5790 5790 5790 5790 5789 5789 5789 5788 5787 5786 5786 5786 5785 5785 5784 5784 5783 5783 5783 5783 5783 5783 5782 5781 5780 5780 5779 5778 5778 5777 5776 5775
5787 5787 5786 5786 5785 5785 5784 5783 5783 5783 5782 5782 5782 5782 5782 5782 5782 5781 5781 5780 5779 5778 5778 5778 5777 5777 5776 5776 5775 5775 5774 5774 5774 5773 5772 5772 5771 5770 5769 5769 5768 5767 5766
5779 5779 5779 5778 5777 5777 5776 5775 5774 5774 5774 5774 5774 5774 5774 5774 5774 5774 5773 5773 5772 5771 5771 5770 5770 5769 5769 5768 5767 5767 5766 5766 5766 5765 5764 5763 5762 5761 5760 5759 5758 5757 5756
5772 5771 5771 5770 5769 5768 5767 5767 5766 5765 5765 5765 5766 5766 5766 5767 5767 5766 5766 5765 5764 5764 5763 5762 5762 5761 5761 5760 5760 5759 5758 5758 5757 5757 5755 5755 5754 5752 5751 5750 5749 5748 5747
5764 5763 5763 5761 5760 5759 5759 5758 5757 5757 5757 5757 5757 5758 5758 5758 5758 5758 5758 5757 5757 5756 5755 5754 5754 5753 5753 5752 5752 5751 5750 5749 5749 5748 5747 5746 5745 5744 5743 5741 5740 5739 5738